Location: Arclight Observatory
(36.5667°N, 87.3333°W)
Time: 06:16:52
(UTC-05:00)

Daily predictions for brighter satellites

Satellite Brightness Start Highest point End
(mag) Time Altitude Azimuth Time Altitude Azimuth Time Altitude Azimuth
SeaSat 1 3.0 19:24:16 10° SE 19:28:50 40° ENE 19:33:25 10° N
Cosmos 1937 Rocket 3.9 19:26:47 10° SSW 19:32:01 74° WNW 19:37:19 10° NNE
Cosmos 2123 Rocket 4.3 19:29:22 10° N 19:35:27 48° E 19:41:28 10° SSE
SL-27 R/B 2.7 19:34:06 10° N 19:37:38 52° ENE 19:41:10 10° SSE
RESURS DK-1 2.5 19:35:26 10° NNW 19:39:30 56° ENE 19:43:33 10° SE
Cosmos 2344 3.8 19:31:50 10° SSW 19:39:32 84° WNW 19:47:56 10° NNE
CZ-3C R/B 4.1 19:35:00 10° WSW 19:39:57 13° SW 19:42:53 10° SSW
CZ-2D R/B 4.4 19:39:28 10° SE 19:42:36 24° ENE 19:45:46 10° NNE
CZ-3B DEB 3.9 19:31:08 10° SW 19:44:02 60° NW 19:49:55 10° NE
Cosmos 1805 3.8 19:43:06 10° SSE 19:46:41 37° E 19:50:18 10° NNE
In-Cosmos 22 4.3 19:42:15 10° N 19:47:23 48° ENE 19:52:27 10° SSE
GPS 2-05 Rocket1 3.6 19:45:14 10° SW 19:48:34 39° SSE 19:51:22 14° E
Cosmos 1844 Rocket 4.5 19:43:32 10° SW 19:48:41 36° WNW 19:53:51 10° N
Cosmos 1818 4.4 19:45:26 10° NNW 19:50:21 34° NE 19:54:40 13° ESE
ALOS 2.2 19:47:07 10° SSE 19:51:46 79° ENE 19:56:28 10° N
Cosmos 1378 3.6 19:48:09 10° NNW 19:51:53 64° W 19:55:34 10° S
COSMOS 2487 4.3 19:50:14 10° NNE 19:52:17 15° ENE 19:53:15 13° E
Resurs 1-3 4.0 19:50:06 10° SE 19:54:13 42° ENE 19:58:22 10° N
Yuri Rocket 4.5 19:52:59 10° WSW 19:56:37 25° S 19:59:42 12° SE
Meteor 1-4 Rocket 2.9 19:54:48 10° SSE 19:58:02 38° E 20:01:17 10° NNE
Timation 1 Rocket 4.3 19:52:48 10° S 19:58:42 63° ESE 20:04:38 10° NNE
FENGYUN 3A 3.7 19:55:52 10° SSE 20:01:16 89° W 20:06:42 10° NNW
Cosmos 1833 Rocket 3.7 19:57:42 10° N 20:02:29 28° ENE 20:05:39 17° ESE
Cosmos 1470 4.0 20:00:38 14° SE 20:02:48 21° E 20:05:48 10° NE
Cosmos 2278 Rocket 2.7 20:00:10 10° SSW 20:05:46 63° WNW 20:11:26 10° NNE
SJ-6B 3.8 20:02:23 10° S 20:05:59 47° W 20:09:36 10° NNW
Cosmos 1544 2.9 20:02:49 10° S 20:06:26 69° E 20:10:05 10° NNE
Cosmos 372 Rocket 4.1 20:05:16 10° S 20:10:07 46° ESE 20:15:02 10° NNE
CZ-4B DEB 4.4 20:12:02 18° ENE 20:12:02 18° ENE 20:13:51 10° NNE
Cosmos 2098 Rocket 4.4 20:04:41 10° S 20:11:40 64° E 20:19:10 10° NNE
Cosmos 1733 4.3 20:10:59 23° ESE 20:11:47 25° E 20:14:58 10° NE
Cosmos 1340 Rocket 4.4 20:09:36 10° NNE 20:12:09 18° ENE 20:12:09 18° ENE
ATLAS 5 CENTAUR R/B 1.9 20:12:35 10° S 20:16:59 47° ESE 20:21:42 10° NE
ISS -3.5 20:14:29 10° SSW 20:17:34 43° SE 20:18:25 34° E
Cosmos 2173 Rocket 4.5 20:12:49 10° SSE 20:18:21 37° E 20:23:59 10° NNE
USA 215 3.5 20:13:44 10° NE 20:19:59 47° SE 20:26:12 10° SSW
H-II Stage 2 2.8 20:19:07 10° SW 20:20:28 17° S 20:20:28 17° S
H-2A R/B 3.0 20:17:25 10° S 20:21:17 70° W 20:25:13 10° NNW
Okean 3 Rocket 3.6 20:17:11 10° N 20:21:35 84° W 20:26:00 10° S
Cosmos 2297 3.6 20:15:57 10° SSW 20:21:37 78° ESE 20:27:23 10° NNE
Cosmos 1867 3.5 20:18:28 10° SSW 20:23:55 87° ESE 20:29:24 10° NNE
Tiangong 1 1.9 20:22:19 10° WNW 20:25:05 38° SSW 20:25:52 30° S
Aurora 2 Rocket 4.5 20:20:22 10° SW 20:25:52 24° S 20:28:04 19° SSE
Spot 2 Rocket 3.6 20:21:34 10° S 20:26:39 77° WSW 20:31:47 10° NNW
Abrixas 2.9 20:24:08 10° NW 20:26:51 40° NNE 20:26:58 40° NE
Cosmos 1758 3.6 20:27:25 10° SSW 20:31:21 66° W 20:35:20 10° N
Helios 1B rocket 2.3 20:29:56 10° NNE 20:34:03 76° ESE 20:38:09 10° S
Cosmos 1076 Rocket 3.3 20:30:35 10° N 20:34:50 86° E 20:38:07 17° S
Lacrosse 5 4.0 20:33:12 10° W 20:37:19 24° NW 20:41:28 10° NNE
Cosmos 2082 Rocket 2.2 20:32:55 10° NNW 20:38:35 62° ENE 20:41:10 32° SE
USA 186 3.0 20:39:54 23° NNW 20:39:54 23° NNW 20:40:57 10° NNW
Cosmos 1953 2.9 20:35:18 10° SSW 20:39:18 58° W 20:43:19 10° N
SWAS 4.3 20:37:18 10° SSW 20:41:35 87° ESE 20:45:55 10° NNE
GP-B 3.0 20:40:05 12° S 20:44:12 87° E 20:48:39 10° N
Envisat 3.0 20:42:59 37° SE 20:44:45 57° ENE 20:49:43 10° N
Cosmos 1939 Rocket 3.3 20:45:32 44° ENE 20:45:32 44° ENE 20:49:15 10° N
Helios 1A 2.9 20:43:23 30° SSE 20:45:25 88° WSW 20:49:38 10° NNW
CZ-4B DEB 4.4 20:46:59 74° SE 20:47:15 82° E 20:50:51 10° N
Cosmos 1271 Rocket 2.6 20:45:01 17° S 20:48:00 81° E 20:52:03 10° N
Cosmos 2016 Rocket 4.1 20:47:02 28° SSE 20:50:02 48° E 20:55:56 10° NNE
Resurs 01 Rocket 3.2 20:46:12 10° SSW 20:50:14 35° W 20:54:17 10° NNW
Cosmos 1766 Rocket 3.5 20:46:09 10° N 20:50:40 89° WSW 20:52:36 34° S
Cosmos-2242 3.2 20:54:11 10° SSW 20:58:24 70° W 21:02:39 10° N
Cosmos 1048 Rocket 4.0 20:55:15 10° NNW 21:00:22 74° WSW 21:02:27 36° S
ERS-1 Rocket 3.5 21:03:21 42° NE 21:03:21 42° NE 21:07:33 10° N
Lacrosse 5 rocket 2.7 21:00:00 10° NNW 21:02:25 26° NNE 21:02:25 26° NNE
Cosmos 2100 Rocket 4.1 20:59:43 10° S 21:06:02 80° W 21:12:26 10° N
Cosmos 1674 3.3 21:02:44 10° NNW 21:06:26 53° W 21:06:52 49° WSW
SJ-11-01 4.2 21:06:18 68° SSE 21:06:56 89° ENE 21:11:41 10° NNW
SL-08 R/B 4.5 21:10:08 53° SE 21:11:15 61° E 21:17:33 10° NNE
Cosmos 1743 Rocket 4.2 21:17:41 10° N 21:21:02 51° N 21:21:02 51° N
Cosmos 1802 Rocket 4.2 21:21:15 10° SSW 21:27:20 68° W 21:33:29 10° N
Cosmos 2251 Rocket 4.2 21:30:20 10° NNW 21:34:11 46° N 21:34:11 46° N
Cosmos 1833 Rocket 3.8 21:41:19 10° NW 21:46:26 37° WSW 21:47:24 34° SW
ATLAS 5 CENTAUR R/B 4.2 21:58:19 10° W 22:01:55 21° NW 22:05:46 10° N
USA 215 4.1 21:56:45 10° NE 22:02:56 47° NW 22:09:05 10° WSW
H-2A R/B 4.3 22:33:29 20° N 22:33:29 20° N 22:35:00 10° NNW
USA 267 4.3 22:35:30 39° N 22:35:30 39° N 22:39:45 10° NW
